EDT,Max TemperatureF,Mean TemperatureF,Min TemperatureF,Max Dew PointF,MeanDew PointF,Min DewpointF,Max Humidity, Mean Humidity, Min Humidity, Max Sea Level PressureIn, Mean Sea Level PressureIn, Min Sea Level PressureIn, Max VisibilityMiles, Mean VisibilityMiles, Min VisibilityMiles, Max Wind SpeedMPH, Mean Wind SpeedMPH, Max Gust SpeedMPH,PrecipitationIn, CloudCover, Events, WindDirDegrees
2013-8-1,77,66,55,61,57,51,100,72,43,29.92,29.87,29.85,10,10,10,15,4,20,0.06,4,Rain-Thunderstorm,293
2013-8-2,73,62,50,63,57,50,96,79,61,29.91,29.84,29.79,10,9,2,17,4,22,0.34,4,Rain-Thunderstorm,300
2013-8-3,69,61,52,57,53,51,100,77,53,30.06,29.99,29.91,10,10,10,17,7,25,0.00,5,,294
2013-8-4,73,61,49,53,48,43,100,68,35,30.19,30.13,30.06,10,10,10,15,6,22,0.00,1,,327
2013-8-5,75,60,44,56,52,43,96,71,46,30.12,30.05,29.94,10,8,2,17,5,21,T,3,,200
2013-8-6,76,68,59,65,61,55,93,81,68,29.94,29.88,29.83,10,10,7,15,7,18,0.05,6,Rain-Thunderstorm,173
2013-8-7,80,71,61,65,61,57,100,76,51,29.94,29.79,29.69,10,8,1,26,8,35,0.32,4,Rain-Thunderstorm,239
2013-8-8,74,63,52,57,52,47,93,67,41,30.05,30.01,29.95,10,10,10,12,4,15,0.00,1,,320
2013-8-9,79,63,47,54,51,45,96,68,40,30.04,29.96,29.87,10,10,10,20,7,29,0.00,1,,269
2013-8-10,73,58,43,53,48,43,93,69,44,30.14,30.11,30.05,10,10,10,10,4,15,0.00,3,,282
2013-8-11,76,61,45,58,52,44,100,71,41,30.12,30.08,30.03,10,10,10,12,3,18,0.00,1,,228
2013-8-12,80,64,47,62,54,45,100,70,39,30.05,29.95,29.85,10,10,10,22,5,25,0.00,2,,300
2013-8-13,64,58,51,52,46,42,89,70,51,30.07,29.97,29.89,10,10,10,22,12,32,T,7,,319
2013-8-14,72,61,49,52,47,43,100,69,37,30.15,30.11,30.08,10,10,10,18,6,24,0.00,1,,294
2013-8-15,77,60,43,54,49,41,96,66,36,30.12,30.09,30.05,10,10,10,13,3,15,0.00,1,,232
2013-8-16,79,63,46,57,52,46,100,68,36,30.22,30.17,30.11,10,10,10,13,4,17,0.00,0,,81
2013-8-17,81,63,45,60,53,45,100,68,36,30.27,30.23,30.19,10,10,10,14,4,18,0.00,0,,144
2013-8-18,84,68,52,56,52,49,93,62,31,30.23,30.16,30.09,10,10,10,17,5,21,0.00,0,,201
2013-8-19,86,69,51,59,55,50,96,64,32,30.11,30.04,29.96,10,10,10,16,5,18,0.00,0,,248
2013-8-20,89,76,62,66,60,57,84,62,40,30.06,30.02,30.00,10,10,10,14,6,20,0.00,1,,227
2013-8-21,91,77,63,64,63,60,87,64,41,30.04,29.98,29.88,10,10,7,20,9,26,0.00,1,,217
2013-8-22,85,69,53,64,57,46,87,60,32,30.11,30.00,29.88,10,10,10,20,8,29,0.00,0,,320
2013-8-23,75,62,49,58,53,49,96,70,44,30.25,30.19,30.12,10,10,10,14,4,31,0.00,1,,73
2013-8-24,78,62,45,63,54,44,100,75,50,30.33,30.27,30.23,10,10,10,16,5,20,0.00,0,,133
2013-8-25,93,76,58,70,62,56,87,64,41,30.23,30.10,29.97,10,9,2,22,9,29,0.25,3,Rain-Thunderstorm,209
2013-8-26,90,78,65,71,68,64,97,71,44,30.02,29.97,29.91,10,10,7,13,5,18,0.01,2,Rain-Thunderstorm,265
2013-8-27,78,70,62,71,67,61,100,88,76,29.96,29.90,29.87,10,8,1,7,1,8,0.02,5,Rain,143
2013-8-28,85,75,64,69,66,64,100,78,55,30.04,29.94,29.86,10,5,0,12,4,17,0.00,3,Fog,27
2013-8-29,89,74,59,68,64,59,100,70,40,30.09,30.04,29.96,10,8,1,13,2,15,0.00,0,,126
2013-8-30,78,72,65,72,68,65,93,81,69,29.96,29.81,29.73,10,8,1,15,7,20,0.53,6,Rain-Thunderstorm,269
2013-8-31,75,67,59,64,62,57,100,84,68,29.89,29.87,29.83,10,10,10,16,5,22,T,6,,41